Location: Unspecified
(0.0000°N, 0.0000°E)
Time: 21:02:54
(UTC+00:00)

KKS-1 - Pass Details

Date: 16 December 2017
Orbit: 637 x 651 km, 98.3° (Epoch: 16 January)

Event Time Altitude Azimuth Distance (km) Brightness Sun altitude
Rises 04:30:13 0° 153° (SSE) 2,968 ? -19.5°
Reaches altitude 10° 04:32:35 10° 144° (SE) 2,055 ? -19.0°
Maximum altitude 04:36:41 36° 78° (ENE) 1,035 ? -18.1°
Drops below altitude 10° 04:40:46 10° 12° (NNE) 2,043 ? -17.1°
Sets 04:43:06 0° 3° (N) 2,949 ? -16.6°
